Flag for U.S.A. Weather past 2 weeks in Barnstable, Massachusetts, U.S.A.

Now
42 °F

Heavy rain. Fog.


Feels Like: 37 °F
Forecast: 41 / 49 °F
Wind: 9 mph from Southwest

Location: Barnstable Municipal-Boardman Airport

Current Time: Mar 26, 2015 at 3:51:30 PM

Latest Report: Mar 26, 2015 at 2:56 PM


Visibility: 1 mi

Pressure: 29.80 "Hg

Humidity: 100%

Dew point: 42 °F

Location of BarnstableLocation

Historic Weather in Barnstable — Graph

°F

Barnstable temperature yesterday

Maximum temperature yesterday: 44 °F (at 10:56 AM)
Minimum temperature yesterday: 21 °F (at 6:56 AM)
Average temperature yesterday: 35 °F

Past Weeks' High & Low Weather Summary

 TemperatureHumidityPressure
High50 °F (Mar 17, 4:56 PM)100% (Mar 14, 11:56 AM)30.60 "Hg (Mar 14, 11:56 AM)
Low17 °F (Mar 20, 6:56 AM)24% (Mar 18, 2:56 PM)29.37 "Hg (Mar 17, 4:56 PM)
Average33 °F63%30.04 "Hg
* Reported Mar 11 2:56 PM — Mar 26 2:56 PM, Barnstable, Weather by CustomWeather, © 2015

Note: Actual official high and low records may vary slightly from our data, if they occured in-between our weather recording intervals... More about our weather records

Advertising

Barnstable weather history for previous 24 hours

 ConditionsComfort  
Time TempWeatherWind HumidityBarometerVisibility
2:56 PM
Thu, Mar 26
42 °FHeavy rain. Fog.9 mph100%29.80 "Hg1 mi
1:56 PM41 °FLight rain. Fog.13 mph100%29.83 "Hg1 mi
12:56 PM43 °FLight rain. Fog.8 mph97%29.88 "Hg1 mi
11:56 AM46 °FFog.12 mph96%29.91 "Hg1 mi
10:56 AM44 °FFog.9 mph100%29.94 "Hg0 mi
9:56 AM45 °FFog.13 mph100%29.96 "Hg0 mi
8:56 AM45 °FFog.13 mph97%29.96 "Hg0 mi
8:04 AM42 °FFog.10 mph100%29.97 "Hg0 mi
7:56 AM42 °FFog.10 mph100%29.98 "Hg1 mi
6:56 AM43 °FFog.15 mph100%30.00 "Hg1 mi
5:56 AM43 °FFog.15 mph97%30.01 "Hg2 mi
4:56 AM43 °FMostly cloudy.13 mph93%30.03 "Hg7 mi
3:56 AM43 °FLight rain. Mostly cloudy.16 mph93%30.04 "Hg8 mi
2:56 AM40 °FLight rain. Low clouds.9 mph93%30.08 "Hg8 mi
1:56 AM39 °FOvercast.12 mph89%30.12 "Hg10 mi
1:04 AM39 °FMostly cloudy.16 mph86%30.14 "Hg10 mi
12:56 AM39 °FMostly cloudy.16 mph86%30.15 "Hg10 mi
11:56 PM
Wed, Mar 25
38 °FMostly cloudy.14 mph86%30.19 "Hg10 mi
10:56 PM37 °FLight rain. Mostly cloudy.10 mph86%30.23 "Hg10 mi
9:56 PM36 °FLight rain. Overcast.8 mph82%30.26 "Hg10 mi
8:56 PM36 °FLight rain. Overcast.9 mph82%30.27 "Hg10 mi
7:56 PM36 °FPartly sunny.12 mph79%30.30 "Hg10 mi
6:56 PM36 °FSunny.10 mph79%30.31 "Hg10 mi
5:56 PM37 °FSunny.13 mph73%30.32 "Hg10 mi
4:56 PM39 °FSunny.14 mph57%30.32 "Hg10 mi
3:56 PM40 °FSunny.13 mph45%30.34 "Hg10 mi
Weather by CustomWeather, © 2015

See weather overviewHow to use our weather pages